QPF
0.09 0.08 0.05 0.03 0.01 0.01 0.01 0.01 0.01 0.02 0.01 0.00 0.00 0.00 0.00 0.00 0.00 0.00 0.00 0.00 0.00 0.00 0.00 0.00 0.00 0.00 0.00 0.00 0.00 0.00 0.00 0.00 0.00 0.00 0.00 0.00 0.00 0.00
0.10 0.08 0.06 0.05 0.02 0.01 0.01 0.00 0.00 0.00 0.00 0.00 0.00 0.00 0.00 0.00 0.00 0.00 0.00 0.00 0.00 0.00 0.00 0.00 0.00 0.00 0.00 0.00 0.00 0.00 0.00 0.00 0.00 0.00 0.00 0.00 0.00 0.00
0.01 0.01 0.01 0.01 0.00 0.00 0.00 0.00 0.00 0.00 0.00 0.00 0.00 0.00 0.00 0.00 0.00 0.00 0.00 0.00 0.00 0.00 0.00 0.00 0.00 0.00 0.00 0.00 0.00 0.00 0.00 0.00 0.00 0.00 0.00 0.00 0.00 0.00
0.00 0.00 0.00 0.00 0.00 0.00 0.00 0.00 0.00 0.00 0.00 0.00 0.00 0.00 0.00 0.00 0.00 0.00 0.00 0.00 0.00 0.00 0.00 0.00 0.00 0.00 0.00 0.00 0.00 0.00 0.00 0.00 0.00 0.00 0.00 0.00 0.00 0.00
0.00 0.00 0.00 0.00 0.00 0.00 0.00 0.00 0.00 0.00 0.00 0.00 0.00 0.00 0.00 0.00 0.00 0.00 0.00 0.00 0.00 0.00 0.00 0.00 0.00 0.00 0.00 0.00 0.00 0.00 0.00 0.00 0.00 0.00 0.00 0.00 0.00 0.00
0.00 0.00 0.00 0.00 0.00 0.00 0.00 0.00 0.00 0.00 0.00 0.00 0.00 0.00 0.00 0.00 0.00 0.00 0.00 0.00 0.00 0.00 0.00 0.00 0.00 0.00 0.00 0.00 0.00 0.00 0.00 0.00 0.00 0.00 0.00 0.00 0.00 0.00
0.00 0.00 0.00 0.00 0.00 0.00 0.00 0.00 0.00 0.00 0.00 0.00 0.00 0.00 0.00 0.00 0.00 0.00 0.00 0.00 0.00 0.00 0.00 0.00 0.00 0.00 0.00 0.00 0.00 0.00 0.00 0.00 0.00 0.00 0.00 0.00 0.00 0.00
0.00 0.00 0.00 0.00 0.00 0.00 0.00 0.00 0.00 0.00 0.00 0.00 0.00 0.00 0.00 0.00 0.00 0.00 0.00 0.00 0.00 0.00 0.00 0.00 0.00 0.00 0.00 0.00 0.00 0.00 0.00 0.00 0.00 0.00 0.00 0.00 0.00 0.00
0.00 0.00 0.00 0.00 0.00 0.00 0.00 0.00 0.00 0.00 0.00 0.00 0.00 0.00 0.00 0.00 0.00 0.00 0.00 0.00 0.00 0.00 0.00 0.00 0.00 0.00 0.00 0.00 0.00 0.00 0.00 0.00 0.00 0.00 0.00 0.00 0.00 0.00
0.00 0.00 0.00 0.00 0.00 0.00 0.00 0.00 0.00 0.00 0.00 0.00 0.00 0.00 0.00 0.00 0.00 0.00 0.00 0.00 0.00 0.00 0.00 0.00 0.00 0.00 0.00 0.00 0.00 0.00 0.00 0.00 0.00 0.00 0.00 0.00 0.00 0.00
0.00 0.00 0.00 0.00 0.00 0.00 0.00 0.00 0.00 0.00 0.00 0.00 0.00 0.00 0.00 0.00 0.00 0.00 0.00 0.00 0.00 0.00 0.00 0.00 0.00 0.00 0.00 0.00 0.00 0.00 0.00 0.00 0.00 0.00 0.00 0.00 0.00 0.00
0.00 0.00 0.00 0.00 0.00 0.00 0.00 0.00 0.00 0.00 0.00 0.00 0.00 0.00 0.00 0.00 0.00 0.00 0.00 0.00 0.00 0.00 0.00 0.00 0.00 0.00 0.00 0.00 0.00 0.00 0.00 0.00 0.00 0.00 0.00 0.00 0.00 0.00
0.00 0.00 0.00 0.00 0.00 0.00 0.00 0.00 0.00 0.00 0.00 0.00 0.00 0.00 0.00 0.00 0.00 0.00 0.00 0.00 0.00 0.00 0.00 0.00 0.01 0.00 0.00 0.00 0.00 0.00 0.00 0.00 0.00 0.00 0.00 0.00 0.00 0.00
0.00 0.00 0.00 0.00 0.00 0.00 0.00 0.00 0.00 0.00 0.00 0.00 0.00 0.00 0.00 0.00 0.00 0.00 0.00 0.00 0.00 0.00 0.00 0.00 0.00 0.00 0.01 0.00 0.00 0.00 0.00 0.00 0.00 0.00 0.00 0.00 0.00 0.00
0.00 0.00 0.00 0.00 0.00 0.00 0.00 0.00 0.00 0.00 0.00 0.00 0.00 0.00 0.00 0.00 0.00 0.00 0.00 0.00 0.00 0.00 0.00 0.00 0.00 0.01 0.01 0.01 0.00 0.00 0.00 0.00 0.00 0.00 0.00 0.00 0.01 0.00
0.00 0.00 0.00 0.00 0.00 0.00 0.00 0.00 0.00 0.00 0.00 0.00 0.00 0.00 0.00 0.00 0.00 0.00 0.00 0.00 0.00 0.00 0.00 0.00 0.00 0.00 0.00 0.00 0.00 0.00 0.00 0.00 0.00 0.00 0.00 0.00 0.01 0.01
0.00 0.00 0.00 0.00 0.00 0.00 0.00 0.00 0.00 0.00 0.00 0.00 0.00 0.00 0.00 0.00 0.00 0.00 0.00 0.00 0.00 0.00 0.00 0.00 0.00 0.00 0.00 0.00 0.00 0.00 0.00 0.00 0.00 0.00 0.00 0.00 0.00 0.00
0.00 0.00 0.00 0.00 0.00 0.00 0.00 0.00 0.00 0.00 0.00 0.00 0.00 0.00 0.00 0.00 0.00 0.00 0.00 0.00 0.00 0.00 0.00 0.00 0.00 0.00 0.00 0.00 0.00 0.00 0.00 0.00 0.00 0.00 0.00 0.00 0.00 0.00
0.00 0.00 0.00 0.00 0.00 0.00 0.00 0.00 0.00 0.00 0.00 0.00 0.00 0.00 0.00 0.00 0.00 0.00 0.00 0.00 0.00 0.00 0.00 0.00 0.00 0.00 0.00 0.00 0.00 0.00 0.00 0.00 0.00 0.00 0.00 0.00 0.00 0.00
0.00 0.00 0.00 0.00 0.00 0.00 0.00 0.00 0.00 0.00 0.00 0.00 0.00 0.00 0.00 0.00 0.00 0.00 0.00 0.00 0.00 0.00 0.00 0.00 0.00 0.00 0.00 0.00 0.00 0.00 0.00 0.00 0.00 0.00 0.00 0.00 0.00 0.00
0.00 0.00 0.00 0.00 0.00 0.00 0.00 0.00 0.00 0.00 0.00 0.00 0.00 0.00 0.00 0.00 0.00 0.00 0.00 0.00 0.00 0.00 0.00 0.00 0.00 0.00 0.00 0.00 0.00 0.00 0.00 0.00 0.00 0.00 0.00 0.00 0.00 0.00
0.00 0.00 0.00 0.00 0.00 0.00 0.00 0.00 0.00 0.00 0.00 0.00 0.00 0.00 0.00 0.00 0.00 0.00 0.00 0.00 0.00 0.00 0.00 0.00 0.00 0.00 0.00 0.00 0.00 0.00 0.00 0.00 0.00 0.00 0.00 0.00 0.00 0.00
0.00 0.00 0.00 0.00 0.00 0.00 0.00 0.00 0.00 0.00 0.00 0.00 0.00 0.00 0.00 0.00 0.00 0.00 0.00 0.00 0.00 0.00 0.00 0.00 0.00 0.00 0.00 0.00 0.00 0.00 0.00 0.00 0.00 0.00 0.00 0.00 0.00 0.00
MSLP
997.53 1000.38 1000.30 1001.27 1001.90 1002.63 1003.29 1003.81 1004.16 1005.69 1007.03 1008.80 1008.59 1009.35 1008.24 1007.89 1008.67 1008.54 1008.79 1009.07 1009.01 1010.19 1009.80 1009.84 1009.46 1009.86 1009.55 1009.20 1009.27 1008.87 1008.89 1008.79 1008.66 1007.93 1007.63 1007.80 1007.61 1007.23
1001.85 1002.41 1003.59 1003.43 1004.09 1003.35 1004.05 1004.22 1004.34 1004.19 1006.83 1008.36 1009.16 1009.19 1008.47 1008.70 1009.16 1009.25 1009.06 1009.32 1010.21 1010.42 1009.85 1009.97 1009.32 1009.23 1009.36 1009.37 1008.64 1008.61 1008.60 1008.54 1008.63 1007.95 1007.56 1007.49 1006.98 1006.50
1005.86 1003.90 1006.56 1003.35 1006.18 1006.26 1005.85 1005.59 1006.24 1005.73 1006.47 1008.17 1008.93 1009.12 1009.45 1009.81 1009.76 1009.72 1009.86 1010.18 1010.64 1010.37 1010.14 1009.92 1009.46 1009.22 1009.08 1009.08 1008.40 1008.57 1008.67 1008.43 1008.62 1008.09 1007.71 1007.44 1007.35 1006.66
1008.82 1007.68 1007.65 1008.06 1007.93 1008.38 1008.95 1007.63 1007.29 1007.27 1008.39 1009.18 1009.59 1010.18 1010.30 1010.47 1010.23 1010.22 1010.45 1010.59 1010.45 1010.16 1009.99 1009.43 1009.55 1009.34 1009.23 1008.66 1008.15 1008.23 1008.39 1008.36 1008.83 1008.04 1007.71 1007.34 1007.30 1006.78
1010.04 1010.34 1010.46 1009.86 1010.63 1011.35 1010.33 1009.53 1008.20 1009.14 1010.27 1010.90 1010.99 1011.14 1011.28 1011.05 1010.67 1010.51 1010.51 1010.94 1010.75 1010.37 1010.01 1009.84 1009.85 1009.65 1009.02 1008.55 1007.96 1008.17 1008.31 1008.37 1008.70 1008.09 1008.13 1007.91 1007.56 1006.94
1012.47 1012.17 1012.39 1012.18 1012.58 1011.97 1011.49 1010.56 1010.94 1010.90 1011.29 1011.76 1011.93 1011.90 1012.04 1011.97 1011.61 1011.47 1011.24 1011.34 1011.15 1010.59 1010.10 1010.28 1010.30 1009.78 1008.68 1008.88 1008.53 1008.38 1008.32 1008.25 1008.33 1008.05 1007.95 1007.86 1007.64 1007.35
1013.27 1013.64 1014.15 1013.95 1014.10 1013.48 1012.26 1012.18 1012.18 1011.81 1011.45 1011.69 1012.36 1012.30 1011.94 1011.96 1011.98 1011.54 1011.31 1011.24 1011.07 1010.41 1010.47 1010.40 1010.45 1009.31 1008.34 1008.64 1008.56 1008.32 1008.20 1008.29 1008.04 1007.48 1007.61 1007.55 1007.74 1007.55
1014.39 1014.74 1014.43 1014.08 1014.17 1013.86 1013.63 1013.41 1013.33 1013.09 1013.17 1013.32 1013.82 1013.82 1013.47 1013.06 1012.35 1012.20 1012.03 1011.43 1011.26 1010.83 1010.93 1010.19 1009.91 1008.85 1008.52 1008.61 1008.63 1007.96 1007.77 1007.90 1007.75 1007.29 1007.21 1007.35 1007.50 1007.44
1015.45 1015.78 1015.43 1015.63 1015.30 1015.13 1014.70 1013.96 1013.67 1013.86 1014.21 1014.38 1014.54 1014.25 1013.50 1013.12 1012.67 1012.38 1012.34 1012.12 1012.12 1010.92 1010.07 1009.24 1009.08 1009.19 1008.92 1008.46 1007.94 1007.73 1007.56 1007.45 1007.32 1006.71 1007.10 1007.03 1007.09 1007.04
1016.23 1016.53 1016.40 1016.01 1015.72 1015.48 1015.41 1015.03 1015.07 1015.09 1014.74 1014.74 1014.44 1013.93 1013.81 1013.25 1012.98 1012.50 1012.00 1011.66 1011.24 1010.58 1010.14 1009.82 1009.46 1009.32 1008.76 1007.93 1007.30 1007.18 1006.87 1006.85 1006.86 1006.76 1006.37 1006.68 1006.70 1006.60
1017.63 1017.10 1017.10 1017.02 1016.78 1016.61 1016.24 1016.26 1016.00 1015.43 1014.98 1014.76 1014.56 1014.38 1013.90 1013.44 1013.02 1012.70 1012.58 1012.23 1011.62 1011.18 1010.58 1010.16 1009.56 1009.07 1008.37 1007.68 1007.11 1006.54 1006.19 1006.22 1006.51 1006.71 1006.46 1006.17 1006.11 1006.06
1017.98 1018.32 1018.14 1017.86 1017.71 1017.23 1017.03 1016.75 1016.13 1015.67 1015.22 1014.77 1014.52 1014.50 1014.26 1014.04 1013.68 1013.49 1013.38 1012.86 1012.18 1011.31 1010.54 1010.59 1009.79 1009.63 1008.59 1007.53 1006.76 1006.53 1006.14 1006.14 1006.30 1006.23 1006.12 1005.76 1005.70 1005.67
1019.26 1019.01 1018.69 1018.27 1018.12 1017.91 1017.51 1016.90 1016.65 1016.37 1016.03 1015.44 1015.31 1015.08 1014.70 1014.25 1013.83 1013.41 1013.10 1012.85 1012.33 1011.82 1010.93 1010.71 1009.83 1009.35 1009.09 1007.89 1007.26 1006.69 1006.20 1005.90 1005.61 1005.47 1005.36 1005.10 1005.11 1005.11
1020.40 1019.94 1019.74 1019.28 1018.85 1018.44 1017.98 1017.63 1017.27 1016.72 1016.32 1015.90 1015.82 1015.45 1014.90 1014.31 1013.69 1013.17 1012.57 1012.15 1011.92 1011.49 1010.64 1010.26 1009.80 1009.20 1008.37 1007.40 1006.75 1006.53 1006.20 1005.63 1005.46 1005.23 1005.04 1004.58 1004.25 1004.12
1020.98 1020.68 1020.24 1019.85 1019.48 1019.08 1018.59 1018.08 1017.64 1017.30 1016.98 1016.54 1016.23 1015.78 1015.26 1014.47 1013.63 1012.76 1012.15 1011.70 1011.03 1010.66 1010.09 1009.72 1009.25 1008.54 1007.85 1006.74 1006.13 1005.99 1005.65 1005.12 1004.78 1004.58 1004.30 1004.13 1003.56 1003.56
1021.45 1021.14 1020.87 1020.57 1020.01 1019.64 1019.14 1018.70 1018.29 1017.91 1017.59 1017.26 1016.84 1016.16 1015.40 1014.85 1014.17 1013.52 1012.62 1011.79 1010.91 1009.64 1009.41 1009.01 1008.63 1008.07 1007.24 1006.24 1005.58 1004.84 1004.54 1004.38 1003.90 1003.48 1003.34 1002.85 1002.48 1002.45
1022.41 1021.88 1021.45 1020.97 1020.54 1020.09 1019.64 1019.30 1018.97 1018.57 1018.07 1017.69 1017.11 1016.39 1015.58 1014.90 1014.28 1013.58 1013.13 1012.25 1011.45 1009.98 1008.70 1008.14 1007.82 1007.38 1006.68 1005.91 1004.85 1004.10 1003.33 1002.88 1002.94 1002.52 1002.28 1002.11 1001.65 1001.50
1022.95 1022.75 1022.57 1022.26 1021.78 1021.18 1020.59 1020.03 1019.64 1019.15 1018.69 1018.19 1017.62 1017.00 1016.13 1015.39 1014.56 1013.71 1013.06 1012.35 1011.53 1010.36 1009.43 1008.47 1007.29 1006.47 1005.39 1003.91 1003.38 1002.73 1002.16 1001.67 1001.66 1001.56 1001.30 1001.09 1000.95 1000.85
1024.09 1023.90 1023.65 1023.20 1022.56 1021.93 1021.42 1020.84 1020.15 1019.64 1019.24 1018.51 1017.78 1017.18 1016.50 1015.50 1014.76 1013.60 1013.18 1012.48 1011.12 1010.43 1009.45 1008.31 1007.47 1006.82 1005.52 1004.01 1002.29 1001.62 1001.39 1001.05 1000.83 1000.48 1000.27 1000.18 1000.05 1000.02
1025.12 1024.83 1024.37 1023.84 1023.13 1022.40 1021.80 1021.27 1020.67 1020.03 1019.32 1018.65 1017.69 1016.91 1016.28 1015.40 1014.30 1013.55 1012.97 1012.12 1010.89 1009.76 1008.37 1007.23 1006.44 1005.76 1004.99 1003.73 1002.54 1001.29 1000.91 1000.47 1000.24 999.99 999.68 999.49 999.50 999.65
1026.05 1025.62 1025.06 1024.21 1023.57 1022.77 1022.18 1021.58 1020.72 1019.77 1019.13 1018.32 1017.38 1016.63 1015.81 1015.05 1013.98 1013.21 1012.30 1011.38 1010.53 1009.51 1008.14 1006.66 1005.43 1004.87 1004.18 1003.31 1002.09 1000.56 999.70 999.50 999.34 999.39 999.31 999.31 999.51 999.61
1026.44 1025.83 1025.12 1024.34 1023.59 1022.76 1022.07 1021.22 1020.26 1019.41 1018.54 1017.77 1016.90 1016.14 1015.44 1014.78 1013.78 1012.83 1011.98 1010.99 1009.93 1008.98 1007.68 1006.18 1004.76 1003.80 1002.75 1001.70 1000.49 999.84 999.30 999.05 998.86 998.92 998.96 999.02 999.13 999.11
1027.36 1026.59 1025.59 1024.75 1023.90 1023.01 1022.11 1021.11 1020.20 1019.29 1018.50 1017.74 1016.92 1015.96 1015.09 1014.13 1013.32 1012.42 1011.44 1010.47 1009.41 1008.11 1006.94 1005.34 1003.88 1002.75 1001.50 1000.26 999.75 999.26 998.89 998.78 998.75 998.73 998.66 998.50 998.50 998.52
Thickness
5657 5652 5654 5648 5645 5642 5641 5642 5643 5629 5617 5595 5595 5595 5603 5611 5610 5615 5613 5614 5617 5606 5609 5609 5615 5612 5615 5617 5616 5622 5623 5622 5620 5625 5627 5624 5622 5622
5614 5614 5605 5605 5607 5621 5619 5621 5623 5629 5606 5588 5579 5582 5592 5593 5595 5596 5599 5600 5592 5591 5597 5597 5605 5606 5606 5604 5614 5615 5615 5616 5612 5617 5619 5618 5622 5623
5558 5582 5560 5592 5574 5564 5584 5594 5591 5597 5592 5575 5571 5573 5574 5576 5578 5577 5580 5580 5574 5580 5585 5588 5593 5596 5596 5597 5605 5603 5604 5606 5602 5606 5608 5609 5607 5613
5523 5537 5535 5539 5541 5544 5546 5558 5568 5571 5563 5556 5557 5552 5555 5554 5558 5562 5563 5561 5564 5569 5572 5580 5579 5582 5583 5590 5594 5594 5593 5595 5589 5597 5600 5602 5601 5604
5506 5508 5509 5515 5515 5510 5523 5530 5544 5541 5532 5528 5528 5530 5529 5534 5538 5541 5544 5543 5546 5552 5557 5560 5562 5566 5572 5577 5584 5581 5581 5582 5579 5586 5585 5587 5589 5595
5475 5480 5481 5485 5485 5493 5501 5507 5508 5512 5511 5507 5507 5508 5507 5509 5514 5516 5522 5525 5527 5533 5540 5540 5542 5548 5560 5559 5564 5566 5568 5569 5568 5572 5574 5577 5579 5581
5459 5459 5458 5461 5462 5467 5478 5479 5485 5491 5495 5496 5492 5493 5497 5497 5498 5505 5510 5513 5516 5521 5521 5521 5524 5537 5545 5543 5545 5549 5551 5551 5555 5563 5564 5566 5566 5568
5440 5439 5443 5448 5449 5453 5455 5459 5464 5466 5466 5465 5462 5465 5470 5475 5483 5485 5488 5494 5497 5500 5501 5507 5512 5521 5524 5524 5524 5534 5538 5538 5540 5548 5551 5551 5551 5555
5424 5422 5426 5427 5431 5432 5436 5444 5447 5445 5444 5444 5443 5448 5455 5461 5466 5469 5469 5473 5473 5483 5490 5500 5497 5499 5500 5504 5511 5516 5520 5522 5527 5535 5534 5537 5538 5543
5413 5412 5413 5417 5420 5421 5422 5426 5427 5427 5431 5430 5432 5437 5439 5444 5448 5454 5458 5461 5463 5468 5470 5474 5474 5476 5482 5490 5495 5498 5504 5507 5509 5513 5520 5520 5523 5528
5394 5399 5400 5401 5403 5404 5406 5406 5407 5413 5417 5417 5418 5419 5422 5426 5430 5434 5433 5437 5441 5443 5444 5449 5452 5457 5464 5471 5475 5481 5487 5490 5491 5492 5498 5505 5511 5515
5386 5382 5383 5385 5385 5388 5389 5389 5394 5397 5399 5400 5401 5400 5401 5402 5404 5405 5405 5408 5412 5419 5419 5423 5429 5430 5442 5448 5456 5458 5464 5465 5469 5474 5479 5487 5492 5497
5365 5367 5368 5372 5371 5372 5374 5378 5378 5378 5377 5379 5377 5377 5378 5380 5382 5384 5385 5386 5389 5391 5393 5396 5405 5407 5407 5424 5428 5430 5435 5441 5448 5454 5461 5468 5470 5476
5347 5350 5350 5352 5354 5355 5357 5358 5359 5360 5360 5361 5359 5358 5359 5360 5362 5364 5365 5366 5364 5366 5368 5368 5374 5376 5383 5395 5402 5402 5404 5408 5414 5422 5430 5440 5448 5456
5335 5335 5337 5337 5337 5337 5339 5340 5340 5338 5337 5337 5335 5334 5335 5337 5339 5341 5341 5341 5339 5336 5337 5336 5340 5345 5351 5362 5367 5368 5370 5377 5377 5384 5393 5403 5417 5425
5322 5321 5319 5318 5318 5316 5315 5314 5314 5312 5310 5307 5304 5305 5306 5304 5304 5306 5307 5307 5309 5308 5303 5303 5304 5307 5314 5318 5321 5330 5328 5334 5338 5344 5353 5369 5381 5390
5301 5301 5299 5297 5295 5293 5291 5288 5284 5282 5280 5277 5275 5274 5274 5272 5270 5271 5269 5270 5271 5276 5275 5270 5269 5271 5273 5276 5283 5287 5294 5300 5299 5305 5312 5327 5343 5357
5282 5279 5274 5271 5268 5266 5263 5260 5255 5252 5249 5245 5242 5241 5242 5240 5240 5239 5240 5241 5241 5245 5246 5248 5253 5254 5257 5266 5264 5271 5274 5278 5277 5279 5284 5295 5306 5318
5257 5251 5245 5240 5237 5234 5229 5225 5223 5220 5216 5215 5215 5214 5215 5218 5219 5224 5224 5225 5230 5231 5233 5238 5238 5240 5245 5253 5261 5263 5264 5264 5265 5268 5272 5279 5288 5293
5229 5224 5219 5214 5209 5205 5201 5198 5196 5196 5198 5199 5202 5205 5207 5211 5215 5218 5219 5221 5226 5231 5236 5240 5243 5243 5245 5251 5257 5261 5260 5261 5261 5263 5267 5270 5274 5278
5205 5197 5192 5189 5186 5186 5185 5184 5188 5193 5195 5199 5203 5207 5210 5213 5218 5220 5222 5225 5228 5231 5237 5243 5248 5247 5248 5250 5257 5267 5269 5266 5265 5264 5265 5266 5266 5268
5186 5180 5177 5178 5179 5182 5184 5188 5193 5198 5202 5205 5209 5211 5213 5214 5217 5221 5223 5226 5231 5234 5239 5246 5252 5255 5259 5265 5273 5273 5273 5270 5269 5266 5266 5266 5267 5269
5169 5169 5172 5176 5180 5184 5188 5193 5197 5201 5204 5206 5208 5211 5214 5217 5221 5224 5227 5230 5234 5240 5244 5252 5259 5265 5271 5278 5279 5278 5277 5273 5271 5269 5268 5269 5269 5272